Regional Weather Roundup
Issued by NWS

Home | Current Version | Previous Version | Graphics & Text | Print | Product List | Glossary On
Versions: 1 2 3 4 5 6 7 8 9 10 11 12 13 14 15 16 17 18 19 20 21 22 23 24 25 26 27 28 29 30 31 32 33 34 35 36 37 38 39 40 41 42 43 44 45 46 47 48 49 50
279
ASUS43 KFSD 090110
RWRSD

WEATHER ROUNDUP FOR SOUTH DAKOTA
NATIONAL WEATHER SERVICE SIOUX FALLS SD
700 PM CST THU DEC 08 2016

NOTE: "FAIR" INDICATES FEW OR NO CLOUDS BELOW 12,000 FEET WITH NO
SIGNIFICANT WEATHER AND/OR OBSTRUCTIONS TO VISIBILITY.


SDZ001>005-009-010-012>017-090200-
NORTHWEST AND NORTH CENTRAL SOUTH DAKOTA

CITY           SKY/WX    TMP DP  RH WIND       PRES   REMARKS
BUFFALO          N/A     -4  -9  79 NE8       30.39F WCI -19
FAITH            N/A     -4  -8  83 N7        30.53F WCI -18
MOBRIDGE       CLOUDY     2  -6  69 NW13      30.58F WCI -15
$$

SDZ012>016-024>037-041>051-057-063-072>074-090200-
SOUTHWEST AND SOUTH CENTRAL SOUTH DAKOTA

CITY           SKY/WX    TMP DP  RH WIND       PRES   REMARKS
RAPID CTY ARPT CLOUDY    -2  -8  76 CALM      30.47F
PIERRE         CLOUDY     5  -1  76 N8        30.62S WCI  -8
CUSTER         CLOUDY    -3  -9  75 CALM      30.22F
ELLSWORTH AFB  CLOUDY     2  -6  69 E5        30.45F WCI  -7
PHILIP         CLOUDY     0  -6  76 CALM      30.59S
PINE RIDGE     CLOUDY    -3  -9  75 E6        30.45F WCI -15
SPEARFISH      FAIR      -4 -11  71 SE5       30.38F WCI -15
WINNER         FAIR       3  -3  76 N6        30.60F WCI  -8
$$

SDZ004>011-016>023-039-040-090200-
NORTHEAST SOUTH DAKOTA

CITY           SKY/WX    TMP DP  RH WIND       PRES   REMARKS
ABERDEEN       CLEAR      3  -3  76 NW7       30.64S WCI  -9
WATERTOWN      CLEAR      7   2  80 NW14      30.55R WCI -10
BROOKINGS      CLEAR      7   4  87 NW13      30.55S WCI  -9
SISSETON         N/A      6   0  76 NW14      30.59R WCI -11
$$

SDZ017-020-022-023-036>040-048>070-090200-
SOUTHEAST SOUTH DAKOTA

CITY           SKY/WX    TMP DP  RH WIND       PRES   REMARKS
SIOUX FALLS    CLEAR     12   6  77 NW10      30.59R WCI  -1
HURON          CLEAR      5   1  83 NW12      30.64S WCI -11
CHAMBERLAIN    LGT SNOW  10   5  82 NW8       30.63S WCI  -3
MITCHELL       CLEAR      8   3  80 NW9       30.66R WCI  -5
YANKTON        CLEAR     12   3  67 NW13      30.63S WCI  -3
$$

ABBREVIATIONS USED IN REMARKS
   TC - TEMPERATURE IN CELSIUS
  WCI - WIND CHILL INDEX
   HX - HEAT INDEX
  VSB - VISIBILITY





USA.gov is the U.S. government's official web portal to all federal, state and local government web resources and services.